Regional Weather Roundup
Issued by NWS Jackson, KY

Home | Current Version | Previous Version | Text Only | Print | Product List | Glossary Off
Versions: 1 2 3 4 5 6 7 8 9 10 11 12 13 14 15 16 17 18 19 20 21 22 23 24 25 26 27 28 29 30 31 32 33 34 35 36 37 38 39 40 41 42 43 44 45 46 47 48

000
ASUS43 KJKL 011710
RWRJKL

EAST KENTUCKY HOURLY WEATHER ROUNDUP
NATIONAL WEATHER SERVICE JACKSON KY
100 PM EDT TUE SEP 01 2015

NOTE: "FAIR" INDICATES FEW OR NO CLOUDS BELOW 12,000 FEET WITH
NO SIGNIFICANT WEATHER AND/OR OBSTRUCTIONS TO VISIBILITY.

* THESE REPORTS ARE NOT UNDER NWS QUALITY CONTROL AND MAY NOT
  REPORT WEATHER SUCH AS PRECIPITATION AND FOG.

KYZ079-080-083-085-087-088-110-112-115-119-120-011800
...EASTERN KENTUCKY...

CITY           SKY/WX    TMP DP  RH WIND       PRES   REMARKS
JACKSON        PTSUNNY   80  68  66 CALM      30.18F
LONDON         MOSUNNY   83  62  49 E3        30.17F
SOMERSET*      PTSUNNY   84  63  48 SE5       30.16F
MONTICELLO*    MOSUNNY   87  67  51 VRB6      30.18F HX  90
WILLIAMSBURG*  PTSUNNY   84  66  54 E5        30.16F
MIDDLESBORO*   SUNNY     83  67  57 CALM      30.16F
HAZARD APT*    MOSUNNY   84  66  54 NE5       30.17F
BLACK MTN*       N/A     70  64  83 N5          N/A
PIKEVILLE APT* MOSUNNY   81  66  61 CALM      30.19F
BIG SANDY*     CLOUDY    82  68  60 CALM      30.17F
MOREHEAD APT*  PTSUNNY   82  64  54 CALM      30.19S
$$

KYZ035-036-041-042-044-050-067-078-099-011800
...CENTRAL KENTUCKY...

CITY           SKY/WX    TMP DP  RH WIND       PRES   REMARKS
MT STERLING*   MOSUNNY   82  66  57 W3        30.18F
FLEMING/MASON* SUNNY     86  66  51 W5        30.17F
DANVILLE*      SUNNY     84  63  48 CALM      30.17F
RICHMOND*      PTSUNNY   84  63  48 CALM      30.16F
LEXINGTON      MOSUNNY   85  64  49 CALM      30.16F
FRANKFORT      SUNNY     84  64  50 CALM      30.15F
$$

KYZ091>093-OHZ055-061-077-WVZ005-015-034-035-042-011800
...SOUTHERN OHIO/WEST VIRGINIA...

CITY           SKY/WX    TMP DP  RH WIND       PRES   REMARKS
COVINGTON      PTSUNNY   87  65  47 VRB3      30.15F
COLUMBUS       MOSUNNY   84  68  58 CALM      30.13F
DAYTON         MOSUNNY   82  70  66 SE6       30.15F
WILMINGTON     MOSUNNY   84  66  54 S7        30.15F
HUNTINGTON     MOSUNNY   83  66  56 CALM      30.15F
CHARLESTON     MOSUNNY   84  64  50 E5        30.15F
PINEVILLE*     CLOUDY    81  70  69 MISG      30.23F
BECKLEY        SUNNY     79  61  53 E3        30.23F
BLUEFIELD      SUNNY     83  59  44 CALM      30.25F
$$

VAZ002-007-008-TNZ017-027-036-066-071-011800
...SOUTHWEST VIRGINIA/EAST TENNESSEE...

CITY           SKY/WX    TMP DP  RH WIND       PRES   REMARKS
WISE*          SUNNY     81  61  50 NE5       30.24F
JONESVILLE*      N/A     84  64  51 E5        30.19F
ABINGDON*      MOSUNNY   82  61  49 CALM      30.20F
BRISTOL        MOSUNNY   84  64  50 VRB5      30.17F
KNOXVILLE      PTSUNNY   85  71  63 N6        30.13F HX  90
OAK RIDGE      SUNNY     86  66  51 VRB3      30.15F
CROSSVILLE     SUNNY     82  63  52 CALM      30.19F
NASHVILLE      PTSUNNY   87  65  47 E3        30.14F
$$

...KEY TO REMARKS...
VSB - VISIBILITY IN MILES
WCI - WIND CHILL INDEX
HX  - HEAT INDEX

$$



USA.gov is the U.S. government's official web portal to all federal, state and local government web resources and services.